Weather History for Fosston, MN

Change the Weather History Date:

Friday, November 23, 2012

  Actual Average Record
Temperature  
Mean Temperature 10 °F -  
Max Temperature 15 °F 27 °F 48 °F (2011)
Min Temperature 5 °F 12 °F -20 °F (1985)
Degree Days  
Heating Degree Days 54    
Moisture  
Dew Point 8 °F    
Average Humidity 85    
Maximum Humidity 92    
Minimum Humidity 73    
Precipitation  
Precipitation 0.00 in - - ()
Sea Level Pressure  
Sea Level Pressure 30.35 in    
Wind  
Wind Speed 15 mph (NW)    
Max Wind Speed 24 mph    
Max Gust Speed 37 mph    
Visibility 5 miles    
Events Snow    
Averages and records for this station are not official NWS values.
T = Trace of Precipitation, MM = Missing Value Source: NWS Daily Summary

Daily Weather History Graph

Daily Weather History Graph

Search for Another Location

Airport:

Trip Planner

Search our weather history database for the weather conditions in past years. The results will help you decide how hot, cold, wet, or windy it might be!

Date:

Astronomy

Nov. 23, 2012 Rise Set
Actual Time 7:40 AM CST 4:38 PM CST
Civil Twilight 7:06 AM CST 5:12 PM CST
Nautical Twilight 6:27 AM CST 5:50 PM CST
Astronomical Twilight 5:51 AM CST 6:27 PM CST
Moon 2:08 PM CST (11/23) 2:43 AM CST (11/23)
Length of Visible Light 10h 06m
Length of Day
8h 57m
Waxing Gibbous, 80% of the Moon is Illuminated
Nov 23
Waxing Gibbous
Nov 28
Full
Dec 6
Last Quarter
Dec 13
New
Dec 19
First Quarter

Hourly Weather History & Observations

Time (CST) Temp. Windchill Dew Point Humidity Pressure Visibility Wind Dir Wind Speed Gust Speed Precip Events Conditions
12:15 AM 10.4 °F -8.2 °F 8.6 °F 92% 30.15 in 2.0 mi NW 19.6 mph 36.8 mph N/A Snow Light Snow
12:55 AM 10.4 °F -8.2 °F 8.6 °F 92% 30.16 in 2.0 mi NW 19.6 mph 28.8 mph N/A Snow Light Snow
1:15 AM 10.4 °F -8.6 °F 8.6 °F 92% 30.18 in 2.5 mi NW 20.7 mph 29.9 mph N/A Snow Light Snow
1:36 AM 10.4 °F -9.1 °F 8.6 °F 92% 30.18 in 2.0 mi NW 21.9 mph 29.9 mph N/A Snow Light Snow
1:55 AM 10.4 °F -8.6 °F 8.6 °F 92% 30.20 in 2.0 mi NW 20.7 mph 29.9 mph N/A Snow Light Snow
2:15 AM 10.4 °F -9.9 °F 8.6 °F 92% 30.21 in 1.8 mi NW 24.2 mph 29.9 mph N/A Snow Light Snow
2:35 AM 10.4 °F -9.1 °F 8.6 °F 92% 30.22 in 2.0 mi NW 21.9 mph 28.8 mph N/A Snow Light Snow
2:55 AM 10.4 °F -7.7 °F 8.6 °F 92% 30.24 in 2.5 mi NW 18.4 mph 26.5 mph N/A Snow Light Snow
3:15 AM 12.2 °F -6.3 °F 8.6 °F 85% 30.25 in 3.0 mi NW 20.7 mph 25.3 mph N/A Snow Light Snow
3:35 AM 12.2 °F -5.8 °F 8.6 °F 85% 30.25 in 3.0 mi NW 19.6 mph 27.6 mph N/A Snow Light Snow
3:55 AM 12.2 °F -4.8 °F 8.6 °F 85% 30.25 in 3.0 mi NW 17.3 mph 26.5 mph N/A Snow Light Snow
4:15 AM 12.2 °F -5.3 °F 10.4 °F 92% 30.27 in 4.0 mi NW 18.4 mph 25.3 mph N/A Snow Light Snow
4:35 AM 12.2 °F -4.8 °F 10.4 °F 92% 30.28 in 3.0 mi NW 17.3 mph 21.9 mph N/A Snow Light Snow
4:55 AM 12.2 °F -5.3 °F 8.6 °F 85% 30.29 in 3.0 mi NW 18.4 mph 25.3 mph N/A Snow Light Snow
5:15 AM 12.2 °F -4.8 °F 8.6 °F 85% 30.30 in 2.5 mi NW 17.3 mph 23.0 mph N/A Snow Light Snow
5:35 AM 12.2 °F -4.8 °F 10.4 °F 92% 30.31 in 4.0 mi NW 17.3 mph 23.0 mph N/A Snow Light Snow
5:55 AM 12.2 °F -4.3 °F 8.6 °F 85% 30.31 in 3.0 mi NW 16.1 mph 21.9 mph N/A Snow Light Snow
6:15 AM 12.2 °F -4.8 °F 8.6 °F 85% 30.32 in 4.0 mi NW 17.3 mph - N/A Snow Light Snow
6:35 AM 12.2 °F -3.1 °F 10.4 °F 92% 30.33 in 4.0 mi NW 13.8 mph 23.0 mph N/A Snow Light Snow
6:55 AM 12.2 °F -3.1 °F 8.6 °F 85% 30.33 in 4.0 mi NW 13.8 mph 21.9 mph N/A Snow Light Snow
7:15 AM 12.2 °F -3.7 °F 10.4 °F 92% 30.34 in 3.0 mi NW 15.0 mph - N/A Snow Light Snow
7:35 AM 12.2 °F -3.1 °F 8.6 °F 85% 30.34 in 4.0 mi NW 13.8 mph 23.0 mph N/A Snow Light Snow
7:55 AM 12.2 °F -4.3 °F 8.6 °F 85% 30.35 in 3.0 mi NW 16.1 mph 23.0 mph N/A Snow Light Snow
8:15 AM 12.2 °F -3.7 °F 8.6 °F 85% 30.36 in 3.0 mi NW 15.0 mph 19.6 mph N/A Snow Light Snow
8:35 AM 12.2 °F -4.3 °F 8.6 °F 85% 30.36 in 2.5 mi NW 16.1 mph 20.7 mph N/A Snow Light Snow
8:55 AM 12.2 °F -4.3 °F 8.6 °F 85% 30.36 in 1.5 mi NW 16.1 mph 21.9 mph N/A Snow Light Snow
9:15 AM 12.2 °F -3.1 °F 8.6 °F 85% 30.37 in 3.0 mi NW 13.8 mph 19.6 mph N/A Snow Light Snow
9:35 AM 12.2 °F -2.5 °F 8.6 °F 85% 30.37 in 2.5 mi NW 12.7 mph - N/A Snow Light Snow
9:55 AM 12.2 °F -2.5 °F 8.6 °F 85% 30.38 in 2.0 mi NW 12.7 mph 19.6 mph N/A Snow Light Snow
10:15 AM 12.2 °F -2.5 °F 8.6 °F 85% 30.39 in 2.0 mi NW 12.7 mph 17.3 mph N/A Snow Light Snow
10:35 AM 14.0 °F -0.8 °F 8.6 °F 79% 30.40 in 1.8 mi NW 13.8 mph 20.7 mph N/A Snow Light Snow
10:55 AM 14.0 °F -0.8 °F 8.6 °F 79% 30.41 in 2.0 mi NW 13.8 mph 21.9 mph N/A Snow Light Snow
11:15 AM 14.0 °F -1.4 °F 8.6 °F 79% 30.40 in 4.0 mi NW 15.0 mph - N/A Snow Light Snow
11:35 AM 14.0 °F 0.5 °F 8.6 °F 79% 30.41 in 2.5 mi NW 11.5 mph 17.3 mph N/A Snow Light Snow
11:55 AM 15.8 °F 2.7 °F 8.6 °F 73% 30.40 in 5.0 mi NW 11.5 mph - N/A Snow Light Snow
12:15 PM 15.8 °F 2.7 °F 8.6 °F 73% 30.40 in 3.0 mi NW 11.5 mph - N/A Snow Light Snow
12:35 PM 15.8 °F 3.4 °F 8.6 °F 73% 30.40 in 7.0 mi NW 10.4 mph - N/A Snow Light Snow
12:55 PM 15.8 °F 3.4 °F 8.6 °F 73% 30.39 in 4.0 mi NW 10.4 mph - N/A Snow Light Snow
1:15 PM 14.0 °F 0.5 °F 8.6 °F 79% 30.39 in 5.0 mi NW 11.5 mph 18.4 mph N/A Snow Light Snow
1:35 PM 14.0 °F 2.0 °F 8.6 °F 79% 30.39 in 3.0 mi WNW 9.2 mph - N/A Snow Light Snow
1:55 PM 14.0 °F 0.5 °F 8.6 °F 79% 30.39 in 5.0 mi WNW 11.5 mph 19.6 mph N/A Snow Light Snow
2:15 PM 14.0 °F 1.2 °F 8.6 °F 79% 30.39 in 2.5 mi NW 10.4 mph - N/A Snow Light Snow
2:35 PM 12.2 °F -1.8 °F 8.6 °F 85% 30.40 in 2.5 mi NW 11.5 mph - N/A Snow Light Snow
2:55 PM 12.2 °F -1.8 °F 6.8 °F 79% 30.39 in 7.0 mi NW 11.5 mph 17.3 mph N/A Snow Light Snow
3:15 PM 12.2 °F -1.0 °F 6.8 °F 79% 30.39 in 10.0 mi NW 10.4 mph 16.1 mph N/A Snow Light Snow
3:35 PM 12.2 °F -0.2 °F 8.6 °F 85% 30.40 in 3.0 mi NW 9.2 mph - N/A Snow Light Snow
3:55 PM 12.2 °F -3.7 °F 6.8 °F 79% 30.41 in 10.0 mi NW 15.0 mph - N/A Snow Light Snow
4:15 PM 12.2 °F -1.8 °F 6.8 °F 79% 30.41 in 7.0 mi NW 11.5 mph - N/A Snow Light Snow
4:35 PM 10.4 °F -2.4 °F 6.8 °F 85% 30.41 in 10.0 mi NW 9.2 mph - N/A   Overcast
4:55 PM 10.4 °F -1.5 °F 6.8 °F 85% 30.40 in 7.0 mi NW 8.1 mph - N/A Snow Light Snow
5:15 PM 10.4 °F -0.4 °F 8.6 °F 92% 30.40 in 3.0 mi NW 6.9 mph - N/A Snow Light Snow
5:35 PM 10.4 °F -0.4 °F 6.8 °F 85% 30.40 in 3.0 mi NW 6.9 mph - N/A Snow Light Snow
5:55 PM 10.4 °F -3.3 °F 6.8 °F 85% 30.40 in 10.0 mi NW 10.4 mph - N/A Snow Light Snow
6:15 PM 10.4 °F -2.4 °F 6.8 °F 85% 30.40 in 7.0 mi NW 9.2 mph 16.1 mph N/A Snow Light Snow
6:35 PM 10.4 °F -1.5 °F 6.8 °F 85% 30.40 in 7.0 mi NW 8.1 mph - N/A Snow Light Snow
6:55 PM 10.4 °F -1.5 °F 6.8 °F 85% 30.40 in 7.0 mi NNW 8.1 mph - N/A Snow Light Snow
7:15 PM 10.4 °F 0.8 °F 6.8 °F 85% 30.39 in 10.0 mi NNW 5.8 mph - N/A Snow Light Snow
7:35 PM 10.4 °F -1.5 °F 6.8 °F 85% 30.39 in 7.0 mi NNW 8.1 mph - N/A Snow Light Snow
7:55 PM 10.4 °F -2.4 °F 6.8 °F 85% 30.39 in 7.0 mi NW 9.2 mph - N/A Snow Light Snow
8:15 PM 8.6 °F -1.3 °F 6.8 °F 92% 30.38 in 7.0 mi NW 5.8 mph - N/A Snow Light Snow
8:35 PM 8.6 °F -3.7 °F 5.0 °F 85% 30.38 in 7.0 mi NW 8.1 mph - N/A Snow Light Snow
8:55 PM 8.6 °F -2.6 °F 5.0 °F 85% 30.38 in 7.0 mi NW 6.9 mph - N/A Snow Light Snow
9:15 PM 8.6 °F - 5.0 °F 85% 30.37 in 5.0 mi Calm Calm - N/A Snow Light Snow
9:35 PM 8.6 °F - 3.2 °F 79% 30.36 in 7.0 mi Calm Calm - N/A Snow Light Snow
9:55 PM 8.6 °F 0.1 °F 5.0 °F 85% 30.37 in 10.0 mi NW 4.6 mph - N/A Snow Light Snow
10:15 PM 8.6 °F -1.3 °F 3.2 °F 79% 30.36 in 10.0 mi NNW 5.8 mph - N/A Snow Light Snow
10:35 PM 6.8 °F -3.5 °F 3.2 °F 85% 30.35 in 10.0 mi NNW 5.8 mph - N/A Snow Light Snow
10:55 PM 6.8 °F - 3.2 °F 85% 30.35 in 5.0 mi Calm Calm - N/A Snow Light Snow
11:15 PM 6.8 °F - 3.2 °F 85% 30.35 in 3.0 mi Calm Calm - N/A Snow Light Snow
11:35 PM 5.0 °F - 1.4 °F 85% 30.34 in 7.0 mi Calm Calm - N/A Snow Light Snow